Accueil
METAR-TAF:

METAR-TAF

Aéroports :

Millinocket Municipal Airport

Millinocket, Maine, États-Unis

latitude: 45-38-52N, longitude: 068-41-31W, altitude: 124 m

Observation

Le bulletin a été fait il y a 14 minutes, à 20:53 UTC
Vent 10 kt de ouest avec des rafales jusqu'à 18 kt
Température 3°C
Humidité 41%
Pression 1018 hPa
Visibilité: 16.1 km
Quelques nuages à une hauteur de 5000 ft

METAR: KMLT 222053Z AUTO 26010G18KT 10SM FEW050 03/M09 A3006 RMK AO2 SLP189 T00331089 53010

Heure: 17:07 (21:07 UTC)


TAF: absent

Observations et prévisions météorologiques de plus de 4000 aéroports (messages METAR et TAF).

Les stations disponibles sont représentées par des disques jaunes et rouges sur la carte.

Passer la souris dessus pour voir le nom de la station.

Cliquer dessus pour voir les observations et prévisions météorologiques.

Pour changer de carte: cliquez sur les boutons verts avec une croix noire pour zoomer, sur le bouton vert avec un tiret pour effectuer un zoom arrière, ou sur les flèches vertes pour les cartes adjacentes.


METAR-TAF: